Regional Weather Roundup
Issued by NWS Bismarck, ND

Home | Current Version | Previous Version | Text Only | Print | Product List | Glossary On
Versions: 1 2 3 4 5 6 7 8 9 10 11 12 13 14 15 16 17 18 19 20 21 22 23 24 25 26 27 28 29 30 31 32 33 34 35 36 37 38 39 40 41 42 43 44 45 46 47 48 49 50
000
ASUS43 KBIS 250410
RWRBIS

NWR BROADCAST TEXT
NATIONAL WEATHER SERVICE BISMARCK ND
1100 PM CDT SAT JUN 24 2017

NOTE: "FAIR" INDICATES FEW OR NO CLOUDS BELOW 12,000 FEET WITH NO
SIGNIFICANT WEATHER AND/OR OBSTRUCTIONS TO VISIBILITY.


CITY           SKY/WX    TMP DP  RH WIND       PRES   REMARKS
WILLISTON      CLEAR     48  39  71 CALM      30.27R
MINOT          CLEAR     52  38  58 W5        30.25R
MINOT AFB      CLEAR     44  39  82 SW5       30.24R
BISMARCK       CLEAR     55  39  54 NW6       30.29R
DICKINSON      CLEAR     48  31  51 CALM      30.30R
GARRISON         N/A     45  37  73 NW6       30.27R
HETTINGER ARPT CLEAR     51  32  48 NE9       30.33R
JAMESTOWN      CLOUDY    51  48  89 NW7       30.22R
HAZEN          FAIR      39  36  87 CALM      30.30S
LINTON         FAIR     N/A N/A N/A VRB5      30.30R
MANDAN         FAIR      46  37  71 NW3       30.29S
STANLEY        FAIR      45  43  93 SW5       30.30R
TIOGA          FAIR      46  41  81 S7        30.28S
WATFORD CITY   FAIR      46  37  71 CALM      30.28S
$$

CITY           SKY/WX    TMP DP  RH WIND       PRES   REMARKS
GRAND FORKS    CLOUDY    53  48  83 NW10      30.17R
GRAND FORKS AF CLOUDY    52  46  80 NW8       30.19R
DEVILS LAKE    MOCLDY    51  45  79 NW8       30.22R
FARGO          CLOUDY    53  44  71 NW14      30.17S
GRAFTON        MOCLDY    52  45  76 NW9       30.20R
GWINNER        MOCLDY    52  39  62 N13G18    30.22R
LANGDON        FAIR      45  45 100 NW6       30.21R
ROLLA            N/A     45  45 100 W5        30.23S
$$

CITY           SKY/WX    TMP DP  RH WIND       PRES   REMARKS
ABERDEEN       CLOUDY    57  43  59 NW13      30.24R
MOBRIDGE       CLEAR     50  39  66 N6        30.26R
BUFFALO          N/A     54  31  41 NE12      30.27R
RAPID CITY     CLEAR     56  30  37 N12       30.33R
GLASGOW        CLEAR     58  36  43 E6        30.27R
SIDNEY         CLEAR     53  35  50 SW5       30.28S
WOLF POINT     CLEAR     60  34  37 CALM      30.27R
GLENDIVE       CLEAR     57  34  41 E5        30.31R
MILES CITY     CLEAR     60  27  28 N8        30.29R
BAKER          CLEAR     51  30  44 SE5       30.33R
$$

CITY           SKY/WX    TMP DP  RH WIND       PRES   REMARKS
BILLINGS       PTCLDY    64  37  36 E6        30.32R
GREAT FALLS    CLOUDY    61  38  42 E13       30.33R
REGINA         PTCLDY    48  45  87 W2        30.25R
ESTEVAN        MOCLDY    50  45  81 SE6       30.24S
$$




USA.gov is the U.S. government's official web portal to all federal, state and local government web resources and services.